GFSWCAN_250_rhum_213.txt.gz
RH
74 77 75 78 81 83 81 78 83 86 86 82 88 89 95 100 100 96 90 97 96 89 86 96 98 100 100 100 100 100 100 100 100 100 87 86 100 100 96 97 99 100 100 100 100 100 100 100 100 100 100 100 100 100
20 23 28 36 47 55 68 81 96 98 94 96 96 100 100 100 100 100 100 100 99 96 85 99 100 100 99 100 100 100 100 100 100 100 100 100 98 96 100 100 98 86 98 100 100 99 99 100 100 99 94 97 100 100
14 13 12 13 13 13 15 24 34 37 57 79 97 100 100 100 100 100 100 100 100 100 100 98 99 100 99 93 100 100 100 100 100 100 100 100 100 100 100 100 100 100 95 90 96 90 100 96 93 92 100 97 81 79
7 7 7 7 7 7 7 8 9 12 14 37 74 75 80 92 99 100 100 100 100 100 100 100 100 100 100 100 99 96 99 100 100 100 100 100 100 100 100 100 100 100 100 81 88 100 100 96 99 100 93 95 97 100
8 8 8 8 8 8 9 9 7 7 7 8 11 14 18 27 52 77 90 100 100 100 97 100 100 100 100 100 100 100 100 100 100 100 100 100 100 100 100 100 100 98 92 100 100 100 100 99 90 84 88 77 68 64
8 9 9 9 10 9 9 9 9 10 11 11 9 9 8 10 12 15 38 96 100 100 100 100 100 100 100 100 100 100 100 100 100 100 100 100 100 100 100 100 100 100 100 100 100 93 88 87 67 75 75 68 66 75
5 4 4 5 5 6 7 8 8 8 8 9 10 11 11 10 10 10 11 12 16 26 47 89 100 100 100 100 100 100 100 100 100 100 100 100 100 100 100 100 100 100 100 100 100 100 100 99 92 80 81 87 80 81
4 4 4 4 4 4 4 4 4 5 5 6 6 8 9 10 11 10 12 10 10 12 12 16 36 72 95 100 100 100 100 100 100 100 100 100 100 100 100 100 100 100 100 100 100 100 98 96 93 94 90 89 94 89
4 3 3 3 3 3 3 3 3 3 3 4 4 4 6 7 9 9 10 11 11 12 12 12 12 14 22 51 65 67 76 100 100 100 100 100 100 100 100 100 100 100 100 100 100 100 100 100 100 100 91 81 74 68
4 4 4 4 4 4 4 4 4 4 4 3 4 4 4 4 6 7 9 9 10 10 12 12 12 14 14 14 16 18 28 58 84 100 100 100 100 100 100 100 100 100 99 94 89 82 75 71 72 58 53 53 44 34
5 5 5 5 5 5 4 4 4 4 4 4 4 4 4 4 4 5 6 7 8 9 11 11 12 13 14 15 14 14 14 15 16 24 61 77 89 88 89 98 98 97 87 66 47 43 39 29 24 22 22 18 14 13
6 6 6 5 5 6 6 6 6 6 5 4 4 4 4 4 4 4 5 5 6 8 9 9 9 10 12 13 14 15 14 15 15 14 15 17 18 19 20 23 21 22 20 19 17 17 16 15 14 15 15 14 14 14
6 5 5 5 5 6 5 6 6 5 5 5 5 5 5 5 5 5 5 5 6 7 8 8 8 8 8 9 11 12 14 15 14 15 16 17 18 17 17 17 18 18 18 17 16 16 16 16 15 15 15 15 15 15
5 5 5 6 7 7 6 6 6 5 5 4 4 5 6 6 6 6 6 6 6 6 6 6 6 6 6 7 7 9 9 10 11 11 12 15 18 19 19 18 17 17 17 18 18 17 17 16 16 15 14 12 12 12
8 8 8 7 6 6 6 6 6 6 6 6 6 6 7 7 7 6 6 6 6 7 6 6 6 6 6 7 8 8 8 9 8 8 8 9 10 11 13 13 13 13 14 14 13 13 12 12 12 11 10 10 10 10
8 7 7 7 7 7 7 6 6 5 5 5 6 6 7 8 8 8 7 7 7 7 7 7 7 7 7 7 6 6 6 6 6 7 8 8 9 9 9 9 9 10 10 10 10 10 9 9 9 9 9 9 9 8
10 9 8 8 7 7 7 6 5 4 4 5 6 7 8 8 8 9 8 8 8 8 7 7 7 7 7 7 8 8 8 7 7 7 8 8 8 8 8 8 8 8 8 9 9 9 9 10 9 9 8 7 7 7
10 9 8 8 8 8 8 6 5 5 6 6 7 8 9 10 10 10 10 9 9 9 8 8 7 7 8 8 8 8 8 8 8 9 9 9 8 8 8 8 9 10 10 9 8 10 9 8 7 7 8 9 10 9
9 9 8 8 7 8 8 7 7 7 8 9 10 11 11 10 10 9 9 8 8 8 8 8 7 7 7 7 7 8 8 8 8 9 10 10 9 9 10 10 9 8 8 8 7 7 8 8 10 10 9 8 7 8
8 8 8 7 8 9 8 8 9 9 10 10 10 10 10 10 10 10 10 10 10 10 10 9 9 8 8 8 8 8 8 8 9 10 9 8 8 8 7 7 7 7 9 9 10 11 10 9 8 7 8 9 10 9
7 7 8 9 10 10 8 9 10 11 11 11 10 10 11 11 11 12 11 11 11 11 11 11 11 10 10 9 9 8 8 8 8 8 8 8 8 9 10 11 11 11 10 10 9 8 7 7 8 9 10 9 8 9
8 8 9 10 11 11 9 9 10 12 12 12 12 12 12 12 12 11 11 11 11 11 10 9 9 10 10 10 11 11 11 12 12 12 12 12 11 10 9 8 8 8 8 8 8 9 9 9 10 9 9 10 12 14
8 8 8 8 10 11 12 11 11 10 11 12 13 13 13 13 13 13 13 13 12 12 12 12 12 12 12 12 12 12 11 11 10 9 8 8 9 9 8 8 9 9 9 9 9 9 10 10 10 10 12 14 17 22
8 9 9 10 10 10 11 12 13 14 15 15 15 16 15 14 14 14 13 13 13 12 10 10 9 8 8 8 8 8 9 10 10 10 10 11 12 12 12 11 10 10 10 10 11 11 12 13 14 14 16 18 22 23
10 10 11 11 11 11 11 12 12 11 11 11 11 10 11 10 11 10 10 10 9 9 10 11 11 12 12 12 13 13 13 13 14 13 12 11 11 11 12 12 13 14 15 16 17 17 18 18 18 20 21 24 26 25
12 12 12 13 13 14 13 14 13 13 14 14 13 13 14 14 14 14 13 13 13 14 14 14 14 13 13 14 14 14 13 14 14 15 16 15 15 16 16 17 18 19 20 20 20 20 21 22 22 22 22 24 25 26
14 14 14 14 14 14 14 15 15 15 15 16 16 16 15 14 14 14 13 14 13 14 15 16 15 16 16 18 20 20 21 21 22 22 21 20 18 17 16 18 20 19 20 22 22 22 22 22 23 24 23 23 23 25
28 28 26 26 25 25 25 24 23 23 22 22 21 19 17 19 18 18 20 23 24 24 24 23 24 24 24 22 20 20 21 22 23 23 21 20 23 24 22 22 22 21 20 21 23 22 22 22 22 22 23 23 23 24
31 31 31 30 30 29 29 29 29 28 28 28 28 27 28 27 27 28 29 30 31 30 28 26 26 24 26 31 32 29 27 24 21 16 14 16 16 15 17 18 19 22 22 22 21 23 22 21 19 19 20 21 22 22
28 27 25 23 21 20 19 18 18 19 19 19 19 18 19 20 19 20 22 24 25 24 25 26 24 24 21 18 17 19 22 24 24 25 26 24 22 20 20 19 17 17 17 18 19 20 21 22 22 21 19 18 18 20
24 24 24 24 23 21 21 20 19 18 17 16 16 16 16 15 15 16 15 16 18 17 16 15 16 16 17 17 17 16 14 13 12 13 13 14 15 16 16 17 16 16 16 17 17 17 17 17 17 18 19 20 19 18
27 26 25 24 22 21 20 19 18 18 18 17 17 16 16 15 15 14 14 14 13 13 14 14 13 12 12 12 12 13 13 13 13 12 12 11 11 10 10 10 10 11 12 13 14 14 15 14 14 15 16 17 18 17
25 27 26 27 26 25 24 22 20 20 20 19 18 18 17 17 17 16 16 16 16 15 14 14 13 12 11 11 10 9 9 9 9 9 9 9 9 9 9 8 8 8 8 9 9 10 10 11 11 12 13 14 14 14

GFSWCAN_250_rhum_219.txt.gz
RH
13 13 13 13 13 12 11 13 14 17 20 24 26 35 40 40 37 42 42 31 34 48 68 76 92 93 100 100 100 100 100 99 89 95 99 100 100 100 100 100 100 100 100 100 100 95 73 100 100 100 100 100 100 100
11 10 9 8 8 8 9 9 10 10 10 11 12 13 13 13 14 14 16 16 18 18 21 40 79 99 100 100 100 100 100 99 95 93 92 99 100 100 100 100 100 100 100 100 100 100 100 100 97 100 100 100 100 100
9 8 7 6 6 6 5 5 5 5 6 6 7 7 8 9 9 10 11 12 13 15 16 18 27 47 74 100 100 100 100 100 100 87 87 82 87 92 100 100 100 100 100 100 100 100 100 100 100 100 100 100 100 100
9 8 7 7 6 6 6 6 6 6 6 6 6 7 7 7 7 7 8 8 8 9 11 13 15 18 20 33 69 100 100 100 100 100 100 100 97 99 100 100 100 100 100 100 100 100 100 100 100 100 100 100 100 100
9 9 9 9 8 8 8 7 6 7 7 7 8 8 8 8 8 8 8 9 9 8 8 8 10 12 12 16 20 32 82 100 100 100 100 100 100 100 100 100 100 100 100 100 100 100 100 100 100 100 100 100 100 100
5 5 4 4 4 4 4 3 3 3 4 4 4 5 6 7 8 8 8 9 10 10 9 9 9 9 9 11 14 18 20 65 100 100 100 100 100 100 100 100 100 100 100 100 100 100 100 100 100 100 100 100 100 100
4 4 3 3 3 3 3 3 3 3 3 3 3 3 3 3 4 5 6 6 7 8 9 11 11 10 10 10 10 11 14 16 21 68 100 100 100 100 100 100 100 100 100 100 100 100 100 100 100 100 100 97 95 100
4 4 4 4 4 4 4 4 4 4 4 4 3 3 3 3 3 3 3 3 3 4 5 8 11 12 11 11 10 10 12 13 14 15 20 40 75 99 100 100 100 100 100 100 100 100 100 100 100 100 94 90 93 97
5 5 4 4 4 4 4 4 4 5 5 4 4 4 3 3 3 3 3 3 3 3 3 4 5 8 12 12 12 12 12 13 13 12 12 13 15 22 42 64 82 100 100 100 100 100 100 100 97 89 89 90 89 90
5 5 6 6 5 5 4 4 4 5 5 5 5 5 4 4 4 4 4 3 3 3 3 4 4 5 6 9 12 13 13 14 13 14 14 12 12 12 13 14 18 36 67 94 99 99 95 96 93 84 81 86 87 80
6 6 6 6 7 7 6 5 4 4 5 6 6 6 5 5 5 5 5 4 4 3 3 4 4 4 5 6 7 10 13 14 12 13 14 15 15 14 13 13 13 14 17 25 36 44 44 42 44 49 57 67 75 75
6 6 6 7 7 7 7 6 5 5 5 5 5 5 5 5 5 5 6 6 5 4 4 4 4 4 5 5 6 8 10 11 11 12 13 14 15 16 16 16 16 15 14 14 13 13 13 15 15 14 14 16 16 15
6 7 7 6 6 7 8 8 7 6 6 6 6 5 5 6 6 6 6 6 6 6 5 5 4 4 5 5 6 7 7 8 8 10 12 13 14 15 16 16 16 16 16 16 17 16 16 16 16 15 15 15 16 15
6 7 7 7 7 6 7 7 7 7 7 7 6 6 6 5 6 6 6 6 6 6 6 6 6 5 5 6 6 6 7 7 8 9 11 12 12 13 14 15 16 17 16 16 17 17 17 18 17 16 15 16 16 16
7 7 7 8 8 7 7 7 6 7 7 6 7 7 7 6 6 6 6 6 6 6 6 6 6 7 7 7 6 6 7 7 8 8 8 9 10 11 12 13 14 14 14 15 15 15 16 16 16 15 15 15 15 15
6 7 8 8 8 8 8 7 7 7 6 7 7 6 6 5 5 5 5 6 6 6 7 8 9 9 8 8 8 8 8 8 8 8 8 8 8 9 10 10 11 12 13 14 14 14 14 14 13 12 12 13 12 11
6 6 6 6 6 7 8 7 7 6 6 7 7 6 6 6 6 6 6 7 8 9 9 10 10 10 9 9 9 9 9 9 9 9 8 8 8 9 9 9 9 9 9 10 10 10 10 10 11 10 10 9 8 9
6 6 6 6 6 7 8 7 7 7 8 8 8 8 8 8 9 9 10 11 11 11 11 12 12 12 11 11 10 9 9 9 9 9 9 10 10 10 9 10 10 10 9 9 9 9 10 9 9 9 9 10 11 11
6 6 6 7 7 7 7 8 9 8 8 9 10 10 10 10 10 10 11 11 10 10 10 10 10 9 9 9 9 10 10 10 10 10 9 9 10 11 11 10 9 10 11 11 11 12 11 10 10 10 11 11 11 10
7 7 6 7 7 8 9 10 10 9 10 11 12 11 11 12 11 11 11 11 11 11 11 12 12 12 11 11 10 10 9 9 7 7 8 9 8 8 8 9 10 11 11 10 10 10 10 10 10 10 9 9 9 11
7 8 8 9 8 10 11 12 12 11 11 11 13 13 13 12 12 12 12 12 12 12 12 11 12 11 11 12 12 11 10 10 9 8 8 8 9 9 10 10 10 10 9 8 8 8 8 9 11 11 11 11 10 9
9 9 9 9 9 10 10 11 12 13 13 13 12 12 12 12 12 13 13 13 13 13 13 13 13 13 12 12 11 11 11 11 10 10 10 10 10 10 11 12 12 12 12 11 11 11 10 9 9 9 9 9 9 10
10 11 11 10 11 10 10 11 11 10 10 10 10 11 12 12 12 13 13 13 13 13 13 13 13 12 13 13 12 12 13 13 13 13 13 13 12 12 12 11 11 10 9 9 9 9 9 9 10 10 10 10 10 11
12 13 13 12 12 12 12 12 12 13 13 13 12 13 12 13 12 12 12 12 11 11 12 12 12 12 12 12 12 11 12 12 12 12 11 11 10 10 10 11 11 11 11 12 11 11 10 10 10 11 11 11 12 12
23 22 20 20 19 19 18 17 17 17 17 16 16 15 15 14 14 13 14 13 13 13 14 14 14 14 14 14 15 15 14 14 14 15 14 14 13 12 12 12 12 12 11 10 11 12 13 14 14 14 14 14 16 16
18 18 18 19 21 23 25 27 28 29 29 28 28 27 27 24 22 21 22 22 22 22 22 22 21 19 19 20 19 20 21 20 18 16 16 16 16 16 15 15 16 16 15 16 16 16 18 19 18 18 18 17 18 19
17 17 17 16 16 15 16 18 19 20 21 24 27 29 28 27 27 27 29 31 32 33 33 33 30 26 27 28 26 25 24 23 23 22 19 17 18 18 18 16 16 17 17 18 18 16 15 17 19 19 18 18 19 20
16 15 15 15 16 16 16 16 16 16 16 16 18 19 20 19 20 19 18 18 19 20 21 22 26 26 25 23 22 21 21 22 22 22 22 22 21 20 20 20 19 17 18 20 20 18 16 16 16 17 18 18 18 19
21 22 21 19 18 18 19 19 19 19 18 18 18 18 18 18 18 18 18 17 16 15 14 13 14 15 16 17 17 16 16 15 14 14 14 16 16 17 20 21 22 21 20 19 20 21 18 16 16 16 16 17 18 18
26 28 27 27 26 25 24 24 23 24 24 24 24 24 24 24 24 23 23 23 23 23 22 20 18 16 13 10 9 10 11 11 11 11 11 11 10 10 10 10 11 12 13 14 15 16 16 16 15 15 15 15 16 16
40 34 33 32 32 33 34 35 35 35 35 35 34 34 32 32 33 31 29 27 27 26 24 21 19 18 16 15 14 13 10 8 8 8 9 9 9 9 9 9 9 8 8 8 9 10 11 11 12 13 13 14 14 15
42 45 48 50 51 51 48 42 39 37 38 38 37 37 38 38 36 35 33 32 30 29 26 23 20 18 18 17 14 12 11 10 10 9 8 8 8 7 7 7 7 8 8 8 8 8 8 9 10 10 10 11 12 12
40 40 41 43 45 46 50 54 56 56 55 53 52 51 47 42 37 35 33 31 31 31 32 30 26 20 15 12 11 10 10 9 9 9 8 7 6 6 6 6 6 6 6 6 6 7 7 7 8 8 8 9 9 10

GFSWCAN_250_rhum_222.txt.gz
RH
15 13 13 12 12 11 10 10 10 9 9 9 10 10 11 12 13 13 13 13 14 16 17 18 24 29 35 60 64 69 72 77 100 97 100 100 100 100 100 100 100 100 100 100 100 100 84 95 100 100 100 100 100 100
18 15 12 12 10 9 8 8 6 6 6 6 6 6 7 8 9 10 12 13 13 13 13 14 17 16 17 26 41 48 58 68 95 100 100 100 100 100 100 100 100 100 100 100 100 100 100 100 100 100 100 100 100 100
13 12 12 11 9 7 6 6 6 6 6 6 6 6 6 6 6 6 7 8 8 9 9 10 12 12 16 18 17 18 36 45 50 61 99 100 100 100 100 100 100 100 100 100 100 100 100 100 100 100 100 100 100 99
10 9 9 9 9 8 8 8 7 7 6 6 6 6 6 7 7 8 8 8 9 8 8 9 9 9 10 13 15 15 17 31 28 45 70 79 100 100 100 100 100 100 100 100 100 100 100 100 100 100 100 100 100 100
10 9 8 7 7 6 5 4 4 3 3 3 3 3 3 3 4 5 6 7 8 8 9 10 9 9 8 10 10 11 13 18 25 32 48 53 56 100 100 100 100 100 100 100 100 100 100 100 100 100 100 100 100 100
7 6 5 4 4 4 3 3 3 3 3 3 3 3 3 3 3 3 3 3 4 6 8 10 11 10 9 9 9 9 9 11 15 18 18 38 73 76 83 100 100 100 100 100 100 100 100 100 100 100 100 100 100 100
4 4 4 4 4 4 4 4 4 4 4 4 4 4 4 4 3 3 3 3 3 3 4 6 9 11 10 11 11 11 10 9 10 11 14 15 16 29 56 60 73 81 98 100 100 100 100 100 100 100 100 100 100 100
4 4 4 5 5 5 5 4 4 4 4 4 4 4 4 4 4 4 4 4 3 3 3 4 4 5 7 9 11 12 13 13 12 10 10 10 11 12 16 24 38 49 68 91 99 100 100 100 100 100 98 94 96 100
5 4 4 5 5 5 5 5 5 5 4 4 4 4 4 5 5 5 5 4 4 4 3 4 4 4 4 5 7 9 11 13 13 13 11 11 11 11 11 11 13 20 47 68 70 75 86 90 95 94 96 100 100 95
4 4 4 5 5 6 6 6 6 6 5 5 6 4 4 4 5 5 5 5 4 4 4 4 4 4 4 4 5 6 6 7 10 12 12 12 12 12 12 12 11 11 12 14 17 25 34 46 60 68 77 77 77 79
4 4 5 5 5 6 6 5 6 6 6 7 5 4 5 6 6 5 5 5 5 5 6 6 5 5 4 4 5 5 5 5 6 8 11 13 14 14 14 14 14 14 13 13 12 12 12 13 16 23 24 24 27 35
4 4 4 5 6 6 7 6 5 5 6 7 7 6 5 5 5 5 5 5 6 6 6 6 6 6 5 5 5 5 5 5 5 6 7 9 11 13 15 16 16 15 14 14 14 14 13 12 12 12 13 14 14 14
4 4 4 5 6 7 7 7 6 6 6 6 6 7 7 6 6 6 6 6 7 6 6 6 7 6 6 5 5 4 5 5 6 6 7 8 8 9 11 14 15 15 16 16 16 16 16 15 15 16 16 17 16 16
3 4 4 6 7 8 8 9 9 8 7 6 6 6 6 6 6 6 6 6 6 7 7 7 6 6 6 6 6 5 5 5 6 6 7 7 8 8 8 9 10 12 15 16 16 16 16 16 16 16 16 16 16 17
4 4 5 5 6 6 6 7 8 8 8 7 7 7 7 7 7 7 6 6 6 6 7 7 7 7 7 7 7 7 6 6 6 6 6 7 7 8 9 10 11 11 12 12 13 13 14 15 15 15 15 15 15 15
4 5 5 5 5 5 5 6 7 8 7 7 7 7 7 7 7 6 6 6 6 6 6 7 7 8 8 8 8 8 8 8 8 7 7 7 7 8 8 9 10 10 11 11 12 12 12 13 13 13 12 13 12 12
5 5 5 5 5 5 5 6 6 6 6 6 7 7 7 7 7 8 8 8 8 8 8 9 8 9 10 10 11 10 10 9 9 9 9 9 8 8 8 9 9 9 10 10 11 11 11 10 10 10 10 10 10 10
6 5 5 5 6 6 6 7 8 8 8 8 8 8 8 9 9 9 10 10 11 11 12 12 11 12 12 12 12 12 11 11 10 10 9 9 10 10 10 10 10 9 9 9 9 9 9 9 9 8 8 8 8 8
6 7 7 7 7 7 7 8 9 9 8 9 10 11 11 10 10 11 11 12 12 12 12 11 11 11 12 12 12 12 11 11 11 11 11 11 11 10 10 9 9 10 10 10 10 10 10 9 9 9 9 10 10 10
7 7 8 8 7 7 7 9 10 11 10 10 11 12 12 11 11 12 12 12 11 11 11 11 11 12 12 12 12 11 10 9 10 10 10 10 9 9 9 10 10 10 10 10 10 10 10 10 10 10 11 11 10 10
9 9 9 9 9 9 9 9 10 11 13 14 13 12 12 12 13 13 13 12 12 12 12 12 12 11 12 12 12 12 12 12 11 10 10 10 10 10 10 11 10 10 10 10 10 10 10 10 10 10 9 8 8 8
13 12 11 11 11 11 10 10 10 10 10 10 11 12 13 13 13 13 13 13 13 13 14 14 14 14 14 14 14 14 13 12 12 12 12 11 10 10 10 10 10 9 9 9 10 10 11 11 11 11 11 11 10 10
23 22 21 22 19 15 13 12 12 12 12 12 12 11 11 12 11 11 12 11 11 11 11 11 11 11 10 10 10 10 10 10 11 12 12 13 13 12 12 12 11 11 10 9 9 9 8 8 8 8 8 9 9 9
16 15 16 17 19 21 22 21 20 17 15 15 14 14 13 14 14 14 14 14 14 14 15 15 14 14 14 13 13 13 12 12 11 11 11 11 11 11 11 11 11 10 10 9 9 9 9 9 9 9 8 9 9 9
15 15 16 17 16 16 16 17 18 19 22 25 26 26 24 23 22 21 21 18 17 15 16 17 17 16 16 15 15 16 16 16 15 14 14 13 12 11 11 10 11 11 11 11 12 11 11 10 10 10 10 10 11 11
17 16 15 14 16 18 19 21 20 20 19 20 20 21 22 23 25 26 27 27 26 26 26 27 30 28 26 25 25 24 23 21 19 18 18 18 17 17 16 15 14 12 11 10 10 12 14 14 14 14 14 15 16 17
20 19 18 17 16 16 17 17 18 19 20 20 20 20 20 20 21 21 20 21 22 22 21 20 19 18 19 19 20 20 21 21 21 21 21 20 19 19 19 21 20 18 17 16 15 14 12 13 16 18 18 17 18 18
22 22 23 22 22 21 20 20 20 20 20 20 20 20 20 21 21 22 23 23 23 23 22 21 20 18 17 15 14 13 13 13 13 14 15 16 16 15 15 15 16 16 16 17 17 15 15 16 19 19 18 17 16 17
38 34 31 29 30 29 30 30 30 28 27 27 27 26 26 26 27 27 27 26 25 24 22 20 19 18 18 18 19 18 15 13 10 9 8 9 10 12 14 13 12 12 13 13 14 14 13 13 15 16 18 18 17 18
32 34 37 38 40 41 40 38 36 36 37 35 34 33 33 33 32 30 28 26 25 25 25 25 24 23 19 17 16 14 12 12 12 11 9 8 7 7 7 8 10 10 11 11 11 12 12 12 12 12 13 14 14 15
36 35 36 36 38 38 39 39 42 43 44 45 42 41 39 37 36 34 32 30 28 25 24 23 22 22 21 18 14 13 14 12 9 8 9 9 9 8 7 6 6 7 7 8 8 9 9 10 10 11 11 11 12 12
44 43 42 41 40 38 38 34 33 32 30 31 30 29 29 30 32 34 33 33 35 39 37 31 24 21 19 18 15 12 10 9 9 9 8 7 6 7 7 7 6 6 6 5 5 6 6 6 7 8 9 9 9 10
44 44 43 42 41 39 39 36 34 31 29 28 27 25 24 22 22 21 22 23 23 23 26 26 22 18 15 13 12 11 10 9 8 7 7 6 6 6 5 5 5 5 5 6 6 6 6 6 6 6 6 7 7 8

GFSWCAN_250_rhum_228.txt.gz
RH
16 14 13 13 13 13 12 12 12 12 12 12 11 11 11 10 9 8 8 7 7 6 7 7 7 7 8 9 11 13 15 17 18 17 20 22 24 27 30 51 86 100 100 100 100 100 100 100 100 100 100 100 100 100
13 11 10 9 8 8 8 8 8 8 8 8 8 7 7 7 8 7 8 7 7 7 8 8 8 8 6 7 8 10 12 14 15 17 16 15 15 18 21 24 68 90 100 100 100 100 100 100 100 100 100 100 100 100
10 9 9 8 7 7 6 6 6 6 6 5 5 6 6 5 6 6 5 5 5 5 5 6 7 7 7 7 7 8 9 10 12 14 15 15 15 15 18 18 26 48 84 100 100 100 100 100 100 100 100 100 100 100
8 6 5 4 4 4 3 4 3 3 3 3 3 3 3 3 3 3 3 3 3 3 4 3 4 4 4 5 6 8 9 10 11 12 13 14 16 15 16 18 20 21 28 41 64 88 100 100 100 100 100 100 100 100
5 4 4 3 3 3 3 3 3 4 4 4 4 4 4 4 4 4 4 4 4 4 4 3 3 3 3 3 4 5 8 9 11 12 11 12 14 14 15 15 18 20 21 22 25 44 78 98 100 100 100 100 100 100
4 3 2 2 2 2 2 2 3 3 3 4 4 4 4 4 4 4 4 4 4 5 5 4 4 4 3 4 4 4 4 7 9 11 11 10 11 12 13 12 13 13 16 19 19 21 29 61 94 100 100 100 100 100
3 3 2 2 3 2 2 2 3 3 3 3 4 4 4 5 5 5 5 5 5 5 4 4 4 4 4 4 3 3 4 4 6 8 10 10 12 12 12 11 11 13 14 13 16 19 20 24 39 60 77 98 100 100
3 3 3 3 2 2 2 2 2 3 3 3 4 4 5 5 5 6 6 6 6 6 5 5 4 4 4 4 4 4 4 4 5 5 7 10 11 12 11 11 11 12 13 13 12 15 16 17 18 23 31 48 79 95
3 3 3 3 3 3 3 3 3 3 4 4 5 5 5 5 6 6 5 6 6 6 6 5 4 4 4 4 4 4 4 4 4 5 6 7 10 12 13 12 11 11 11 13 14 14 13 13 13 15 17 19 21 25
3 3 3 3 3 3 3 3 3 3 4 4 5 6 6 6 6 5 6 6 7 7 6 5 4 5 5 5 5 5 6 6 6 5 5 6 7 10 12 13 13 12 12 12 13 14 14 13 12 12 12 13 15 16
4 4 4 3 3 3 3 3 3 4 4 6 6 6 6 6 5 5 6 7 7 6 5 6 6 6 6 6 6 6 7 6 6 6 6 6 6 6 8 11 13 14 15 16 15 15 15 15 14 14 13 12 13 14
4 4 4 4 4 4 4 4 4 4 6 6 7 7 7 7 6 6 6 6 7 8 7 6 6 6 6 5 6 6 7 8 7 6 6 5 6 6 7 7 8 11 14 15 15 16 16 15 14 14 14 14 14 13
4 4 4 4 4 4 4 4 4 5 5 5 6 6 6 7 7 6 6 6 6 6 7 7 7 7 7 6 7 7 7 8 7 7 7 6 6 6 7 7 8 9 11 13 15 16 16 17 16 16 16 16 15 15
6 5 5 5 5 5 5 5 5 5 5 5 5 6 7 7 7 7 7 7 7 7 7 7 8 7 7 7 8 8 8 8 8 7 7 8 8 7 6 6 7 7 8 9 10 12 15 16 18 18 19 19 19 19
8 6 6 6 6 6 6 6 6 6 6 5 6 6 7 7 7 7 7 7 8 8 8 7 7 7 7 8 8 8 9 8 8 8 8 8 7 7 7 7 6 6 7 7 9 10 11 11 13 14 15 16 17 18
12 9 7 6 6 6 6 6 7 7 7 8 8 8 7 8 8 8 8 8 8 8 8 7 7 7 7 8 8 8 8 8 8 8 8 8 8 7 7 7 7 7 7 8 8 8 9 9 10 11 11 12 12 12
11 12 11 8 7 7 7 7 7 8 9 8 8 9 10 10 10 10 10 10 10 10 10 10 9 9 8 8 8 8 8 8 9 10 9 8 8 8 8 8 7 7 7 7 7 8 8 8 9 9 10 10 10 10
11 11 12 14 13 9 8 8 8 9 10 10 10 10 11 12 12 12 12 12 12 12 12 13 13 13 13 12 12 12 12 13 12 12 11 12 11 11 10 10 9 9 8 7 7 8 8 8 8 9 9 10 10 9
11 10 10 11 14 16 12 10 9 9 9 9 10 12 13 13 13 13 13 13 13 13 13 13 13 13 12 12 12 11 11 11 11 11 12 12 12 12 11 11 11 10 10 10 10 10 9 9 8 8 8 9 9 9
11 11 11 12 12 13 14 15 14 10 10 10 10 10 10 11 12 14 14 14 14 14 14 14 14 14 13 13 13 13 12 12 12 12 11 10 10 10 10 11 11 11 11 11 10 10 10 10 10 10 10 10 10 10
12 12 13 13 13 14 13 13 16 19 18 14 11 10 11 12 11 11 12 12 13 14 14 15 15 16 16 16 16 15 14 13 12 12 12 12 12 12 11 10 9 9 9 9 9 9 9 9 9 9 10 10 10 10
14 13 14 14 14 14 15 16 15 15 19 23 23 21 17 15 14 12 11 11 12 12 12 12 12 13 13 13 13 13 13 13 13 14 14 14 13 12 11 11 10 10 10 9 9 9 9 9 9 9 9 10 10 10
20 19 17 16 15 15 16 16 16 16 16 15 16 18 20 23 25 25 25 22 20 19 18 17 16 16 14 13 14 14 14 14 14 14 13 12 11 11 11 11 12 12 12 12 12 12 11 11 11 11 11 11 11 11
21 21 23 23 22 21 20 19 18 17 17 16 16 16 16 16 16 17 17 18 17 19 21 22 23 23 23 23 22 21 20 19 18 17 16 14 13 12 12 11 10 9 9 9 9 9 8 8 8 8 8 8 8 8
25 26 27 28 28 29 29 28 25 25 24 23 22 21 20 19 21 20 21 20 19 19 20 19 19 18 17 17 17 17 17 16 16 16 16 17 16 15 14 14 13 12 10 9 8 8 8 8 9 8 8 8 9 9
34 34 33 34 35 34 33 35 36 36 36 35 33 31 29 28 26 25 25 25 24 24 23 23 21 19 18 17 16 15 14 14 13 13 13 13 12 12 14 15 15 14 12 11 10 10 10 9 9 8 9 9 10 10
28 31 33 33 34 35 33 32 30 29 29 29 30 32 32 34 33 32 31 29 26 24 24 24 23 22 20 20 18 16 14 13 12 12 11 10 10 10 10 10 10 11 12 11 11 10 10 11 12 11 10 10 10 10
25 24 23 22 22 21 22 22 22 21 21 21 22 22 22 23 24 23 25 27 28 28 28 28 29 26 22 18 17 20 20 17 14 11 10 8 8 9 9 9 9 9 9 10 10 11 11 10 10 11 12 12 11 11
25 23 23 21 20 20 20 19 18 18 17 17 17 18 18 18 18 18 18 18 18 19 18 17 23 26 27 26 17 13 12 12 13 14 13 10 8 7 7 7 8 7 7 7 8 9 10 11 11 11 12 12 12 12
30 28 27 25 23 22 19 16 15 14 13 13 12 12 13 15 14 14 15 15 15 15 14 13 12 12 15 17 17 14 12 11 9 9 9 10 10 9 8 7 6 6 7 6 6 6 7 8 8 10 10 11 12 13
32 27 24 24 23 22 18 14 12 12 12 11 10 10 10 11 12 12 12 12 14 14 12 12 12 12 12 12 11 12 12 11 10 8 8 8 7 7 7 6 5 5 5 6 5 5 5 6 6 7 8 9 10 10
31 29 26 23 21 18 15 11 8 8 7 6 6 7 9 10 10 10 10 11 11 12 12 11 11 10 11 11 10 10 10 10 9 9 8 7 7 6 5 5 5 5 5 4 4 4 4 5 5 5 6 6 7 8
23 22 20 20 20 20 17 12 9 8 8 7 7 6 7 8 9 10 10 10 11 12 12 11 10 9 9 9 10 10 9 9 9 9 8 8 7 6 6 6 5 5 4 4 4 4 4 4 4 5 5 6 6 6